Location: Unspecified
(0.0000°N, 0.0000°E)
Time: 18:07:35
(UTC+00:00)

LES 2 - Pass Details

Date: 18 August 2024
Orbit: 2771 x 14804 km, 32.2° (Epoch: 11 September)

Event Time Altitude Azimuth Distance (km) Brightness Sun altitude
Rises 18:51:53 0° 289° (WNW) 7,128 ? -11.7°
Reaches altitude 10° 18:56:23 10° 283° (WNW) 5,751 ? -12.8°
Maximum altitude 19:09:42 49° 209° (SSW) 3,487 ? -16.1°
Drops below altitude 10° 19:28:41 10° 135° (SE) 7,896 ? -20.7°
Enters shadow 19:28:44 10° 135° (SE) 7,911 ? -20.7°
